| time (UTC) | temp F | wind direction | speed MPH | gust MPH | rain 1hr in | rain 24hr in | rain mn in | humidity % | barometer mb |
| 20260904022021 | 79 | 152 | 3.0 | 8.0 | 0.00 | 0.00 | 0.00 | 81 | 1005.3 |
| 20260904021549 | 79 | 141 | 3.0 | 5.0 | 0.00 | 0.00 | 0.00 | 81 | 1005.3 |
| 20260904021018 | 79 | 162 | 2.0 | 5.0 | 0.00 | 0.00 | 0.00 | 81 | 1005.2 |
| 20260904020518 | 80 | 126 | 1.0 | 4.0 | 0.00 | 0.00 | 0.00 | 81 | 1005.4 |
| 20260904020040 | 80 | 134 | 0.0 | 3.0 | 0.00 | 0.00 | 0.00 | 80 | 1005.4 |
| 20260904015519 | 80 | 0 | 0.0 | 3.0 | 0.00 | 0.00 | 0.00 | 81 | 1005.2 |
| 20260904015022 | 80 | 0 | 0.0 | 3.0 | 0.00 | 0.00 | 0.00 | 81 | 1005.2 |
| 20260904014541 | 80 | 0 | 0.0 | 5.0 | 0.00 | 0.00 | 0.00 | 80 | 1005.1 |
| 20260904014017 | 80 | 0 | 1.0 | 6.0 | 0.00 | 0.00 | 0.00 | 79 | 1005.0 |
| 20260904013520 | 81 | 140 | 1.0 | 6.0 | 0.00 | 0.00 | 0.00 | 79 | 1004.9 |
| 20260904013041 | 81 | 107 | 2.0 | 5.0 | 0.00 | 0.00 | 0.00 | 79 | 1004.7 |
| 20260904012521 | 81 | 143 | 2.0 | 8.0 | 0.00 | 0.00 | 0.00 | 78 | 1004.6 |
| 20260904012018 | 81 | 132 | 3.0 | 8.0 | 0.00 | 0.00 | 0.00 | 78 | 1004.7 |
| 20260904011551 | 81 | 123 | 2.0 | 7.0 | 0.00 | 0.00 | 0.00 | 78 | 1004.6 |
| 20260904011020 | 82 | 130 | 2.0 | 11.0 | 0.00 | 0.00 | 0.00 | 77 | 1004.4 |
| 20260904010517 | 82 | 141 | 5.0 | 11.0 | 0.00 | 0.00 | 0.00 | 77 | 1004.4 |
| 20260904010040 | 82 | 129 | 3.0 | 8.0 | 0.00 | 0.00 | 0.00 | 76 | 1004.4 |
| 20260904005523 | 82 | 132 | 3.0 | 8.0 | 0.00 | 0.00 | 0.00 | 77 | 1004.3 |
| 20260904005019 | 83 | 155 | 3.0 | 9.0 | 0.00 | 0.00 | 0.00 | 76 | 1004.2 |
| 20260904004537 | 83 | 142 | 4.0 | 9.0 | 0.00 | 0.00 | 0.00 | 75 | 1004.2 |
| 20260904004022 | 83 | 133 | 4.0 | 8.0 | 0.00 | 0.00 | 0.00 | 75 | 1004.2 |
| 20260904003520 | 83 | 134 | 3.0 | 8.0 | 0.00 | 0.00 | 0.00 | 75 | 1004.2 |
| 20260904003035 | 83 | 120 | 3.0 | 6.0 | 0.00 | 0.00 | 0.00 | 75 | 1004.1 |
| 20260904002520 | 84 | 142 | 3.0 | 8.0 | 0.00 | 0.00 | 0.00 | 75 | 1004.1 |
| 20260904002020 | 84 | 128 | 4.0 | 9.0 | 0.00 | 0.00 | 0.00 | 75 | 1004.2 |
| 20260904001539 | 84 | 133 | 5.0 | 9.0 | 0.00 | 0.00 | 0.00 | 74 | 1004.3 |
| 20260904001020 | 84 | 129 | 3.0 | 9.0 | 0.00 | 0.00 | 0.00 | 73 | 1004.2 |
| 20260904000523 | 84 | 130 | 4.0 | 9.0 | 0.00 | 0.00 | 0.00 | 74 | 1004.2 |
| 20260904000039 | 85 | 134 | 5.0 | 12.0 | 0.00 | 0.00 | 0.00 | 72 | 1004.0 |
| 20260903235523 | 85 | 141 | 6.0 | 12.0 | 0.00 | 0.00 | 0.00 | 73 | 1004.0 |
| 20260903235019 | 85 | 138 | 7.0 | 14.0 | 0.00 | 0.00 | 0.00 | 72 | 1004.2 |
| 20260903234537 | 85 | 135 | 6.0 | 14.0 | 0.00 | 0.00 | 0.00 | 72 | 1004.3 |
| 20260903234021 | 86 | 128 | 8.0 | 13.0 | 0.00 | 0.00 | 0.00 | 71 | 1004.2 |
| 20260903233520 | 86 | 123 | 8.0 | 12.0 | 0.00 | 0.00 | 0.00 | 70 | 1004.3 |
| 20260903233038 | 86 | 148 | 5.0 | 12.0 | 0.00 | 0.00 | 0.00 | 70 | 1004.2 |
| 20260903232521 | 86 | 149 | 7.0 | 12.0 | 0.00 | 0.00 | 0.00 | 69 | 1004.2 |
| 20260903232018 | 87 | 151 | 4.0 | 9.0 | 0.00 | 0.00 | 0.00 | 68 | 1004.3 |
| 20260903231539 | 86 | 155 | 4.0 | 10.0 | 0.00 | 0.00 | 0.00 | 67 | 1004.2 |
| 20260903231021 | 87 | 170 | 4.0 | 10.0 | 0.00 | 0.00 | 0.00 | 67 | 1004.1 |
| 20260903230518 | 87 | 161 | 6.0 | 11.0 | 0.00 | 0.00 | 0.00 | 68 | 1003.9 |
| 20260903230039 | 87 | 137 | 5.0 | 12.0 | 0.00 | 0.00 | 0.00 | 67 | 1004.0 |
| 20260903225524 | 87 | 123 | 8.0 | 12.0 | 0.00 | 0.00 | 0.00 | 66 | 1003.9 |
| 20260903225018 | 87 | 168 | 4.0 | 9.0 | 0.00 | 0.00 | 0.00 | 67 | 1003.9 |
| 20260903224539 | 87 | 186 | 5.0 | 13.0 | 0.00 | 0.00 | 0.00 | 67 | 1003.8 |
| 20260903224019 | 87 | 227 | 6.0 | 13.0 | 0.00 | 0.00 | 0.00 | 66 | 1003.7 |
| 20260903223520 | 87 | 136 | 7.0 | 12.0 | 0.00 | 0.00 | 0.00 | 66 | 1003.7 |
| 20260903223042 | 87 | 155 | 6.0 | 11.0 | 0.00 | 0.00 | 0.00 | 66 | 1003.6 |
| 20260903222520 | 86 | 127 | 6.0 | 13.0 | 0.00 | 0.00 | 0.00 | 66 | 1003.4 |
| 20260903222018 | 86 | 150 | 8.0 | 13.0 | 0.00 | 0.00 | 0.00 | 66 | 1003.6 |
| 20260903221535 | 86 | 178 | 5.0 | 12.0 | 0.00 | 0.00 | 0.00 | 67 | 1003.4 |
| 20260903221018 | 86 | 139 | 7.0 | 14.0 | 0.00 | 0.00 | 0.00 | 68 | 1003.4 |
| 20260903220520 | 86 | 161 | 8.0 | 14.0 | 0.00 | 0.00 | 0.00 | 66 | 1003.5 |
| 20260903220057 | 86 | 146 | 8.0 | 14.0 | 0.00 | 0.00 | 0.00 | 67 | 1003.5 |
| 20260903215518 | 86 | 138 | 7.0 | 16.0 | 0.00 | 0.00 | 0.00 | 67 | 1003.6 |
| 20260903215020 | 86 | 160 | 8.0 | 16.0 | 0.00 | 0.00 | 0.00 | 67 | 1003.6 |
| 20260903214539 | 86 | 152 | 6.0 | 13.0 | 0.00 | 0.00 | 0.00 | 69 | 1003.6 |
| 20260903214017 | 86 | 194 | 5.0 | 15.0 | 0.00 | 0.00 | 0.00 | 69 | 1003.7 |
| 20260903213520 | 85 | 167 | 9.0 | 15.0 | 0.00 | 0.00 | 0.00 | 69 | 1003.7 |
| 20260903213043 | 85 | 161 | 8.0 | 14.0 | 0.00 | 0.00 | 0.00 | 68 | 1003.7 |
| 20260903212520 | 85 | 182 | 6.0 | 13.0 | 0.00 | 0.00 | 0.00 | 69 | 1003.9 |
| 20260903212019 | 85 | 161 | 8.0 | 16.0 | 0.00 | 0.00 | 0.00 | 69 | 1004.0 |
| 20260903211538 | 85 | 137 | 9.0 | 16.0 | 0.00 | 0.00 | 0.00 | 69 | 1003.9 |
| 20260903211020 | 85 | 151 | 9.0 | 16.0 | 0.00 | 0.00 | 0.00 | 69 | 1003.9 |
| 20260903210518 | 85 | 184 | 7.0 | 15.0 | 0.00 | 0.00 | 0.00 | 68 | 1004.0 |
| 20260903210048 | 85 | 129 | 7.0 | 15.0 | 0.00 | 0.00 | 0.00 | 69 | 1004.0 |
| 20260903205519 | 85 | 160 | 8.0 | 15.0 | 0.00 | 0.00 | 0.00 | 69 | 1003.9 |
| 20260903205017 | 85 | 180 | 6.0 | 19.0 | 0.00 | 0.00 | 0.00 | 68 | 1004.0 |
| 20260903204537 | 84 | 143 | 11.0 | 19.0 | 0.00 | 0.00 | 0.00 | 71 | 1004.0 |
| 20260903204019 | 84 | 176 | 8.0 | 14.0 | 0.00 | 0.00 | 0.00 | 72 | 1003.9 |
| 20260903203518 | 84 | 134 | 7.0 | 14.0 | 0.00 | 0.00 | 0.00 | 72 | 1003.9 |
| 20260903203036 | 83 | 121 | 7.0 | 15.0 | 0.00 | 0.00 | 0.00 | 72 | 1003.9 |
| 20260903202520 | 83 | 167 | 9.0 | 15.0 | 0.00 | 0.00 | 0.00 | 73 | 1003.9 |
| 20260903202019 | 83 | 138 | 6.0 | 13.0 | 0.00 | 0.00 | 0.00 | 73 | 1004.1 |
| 20260903201535 | 83 | 129 | 7.0 | 13.0 | 0.00 | 0.00 | 0.00 | 73 | 1004.2 |
| 20260903201019 | 83 | 135 | 6.0 | 12.0 | 0.00 | 0.00 | 0.00 | 74 | 1004.2 |
| 20260903200520 | 83 | 138 | 8.0 | 14.0 | 0.00 | 0.00 | 0.00 | 74 | 1004.1 |
| 20260903200037 | 82 | 170 | 4.0 | 14.0 | 0.00 | 0.00 | 0.00 | 75 | 1004.0 |
| 20260903195517 | 82 | 143 | 1.0 | 10.0 | 0.00 | 0.00 | 0.00 | 75 | 1004.0 |
| 20260903195018 | 83 | 143 | 4.0 | 10.0 | 0.00 | 0.00 | 0.00 | 75 | 1004.0 |
| 20260903194546 | 83 | 138 | 2.0 | 9.0 | 0.00 | 0.00 | 0.00 | 74 | 1004.0 |
| 20260903194023 | 83 | 126 | 2.0 | 9.0 | 0.00 | 0.00 | 0.00 | 74 | 1004.0 |
| 20260903193521 | 82 | 118 | 5.0 | 10.0 | 0.00 | 0.00 | 0.00 | 75 | 1004.1 |
| 20260903193050 | 82 | 130 | 4.0 | 12.0 | 0.00 | 0.00 | 0.00 | 74 | 1004.2 |
| 20260903192519 | 82 | 120 | 6.0 | 14.0 | 0.00 | 0.00 | 0.00 | 74 | 1004.3 |
| 20260903192021 | 82 | 132 | 8.0 | 14.0 | 0.00 | 0.00 | 0.00 | 73 | 1004.4 |
| 20260903191535 | 82 | 129 | 7.0 | 12.0 | 0.00 | 0.00 | 0.00 | 73 | 1004.5 |
| 20260903191019 | 82 | 148 | 7.0 | 12.0 | 0.00 | 0.00 | 0.00 | 73 | 1004.7 |
| 20260903190518 | 82 | 119 | 7.0 | 13.0 | 0.00 | 0.00 | 0.00 | 73 | 1004.7 |
| 20260903190044 | 82 | 130 | 7.0 | 13.0 | 0.00 | 0.00 | 0.00 | 73 | 1004.3 |
| 20260903185522 | 82 | 126 | 8.0 | 14.0 | 0.00 | 0.00 | 0.00 | 73 | 1004.9 |
| 20260903185019 | 82 | 142 | 6.0 | 14.0 | 0.00 | 0.00 | 0.00 | 73 | 1004.9 |
| 20260903184537 | 82 | 159 | 7.0 | 12.0 | 0.00 | 0.00 | 0.00 | 72 | 1005.0 |
| 20260903184018 | 82 | 129 | 6.0 | 11.0 | 0.00 | 0.00 | 0.00 | 74 | 1005.1 |
| 20260903183518 | 82 | 167 | 6.0 | 12.0 | 0.00 | 0.00 | 0.00 | 73 | 1005.1 |
| 20260903183038 | 82 | 142 | 7.0 | 12.0 | 0.00 | 0.00 | 0.00 | 73 | 1005.2 |
| 20260903182519 | 82 | 194 | 5.0 | 13.0 | 0.00 | 0.00 | 0.00 | 72 | 1005.2 |
| 20260903182020 | 82 | 167 | 7.0 | 13.0 | 0.00 | 0.00 | 0.00 | 71 | 1005.3 |
| 20260903181538 | 82 | 208 | 7.0 | 14.0 | 0.00 | 0.00 | 0.00 | 72 | 1005.3 |
| 20260903181020 | 82 | 191 | 8.0 | 15.0 | 0.00 | 0.00 | 0.00 | 71 | 1005.4 |
| 20260903180518 | 82 | 165 | 9.0 | 16.0 | 0.00 | 0.00 | 0.00 | 70 | 1005.3 |
| 20260903180040 | 83 | 149 | 11.0 | 16.0 | 0.00 | 0.00 | 0.00 | 70 | 1005.4 |
| 20260903175517 | 82 | 199 | 7.0 | 15.0 | 0.00 | 0.00 | 0.00 | 71 | 1005.5 |
| 20260903175017 | 82 | 172 | 9.0 | 17.0 | 0.00 | 0.00 | 0.00 | 72 | 1005.8 |
| 20260903174539 | 82 | 172 | 10.0 | 17.0 | 0.00 | 0.00 | 0.00 | 70 | 1005.8 |
| 20260903174021 | 82 | 186 | 9.0 | 19.0 | 0.00 | 0.00 | 0.00 | 70 | 1005.8 |
| 20260903173520 | 82 | 192 | 11.0 | 19.0 | 0.00 | 0.00 | 0.00 | 70 | 1005.7 |
| 20260903173039 | 82 | 167 | 8.0 | 20.0 | 0.00 | 0.00 | 0.00 | 70 | 1006.0 |
| 20260903172520 | 82 | 202 | 9.0 | 20.0 | 0.00 | 0.00 | 0.00 | 70 | 1006.0 |
| 20260903172022 | 82 | 157 | 9.0 | 19.0 | 0.00 | 0.00 | 0.00 | 69 | 1005.9 |
| 20260903171539 | 82 | 178 | 9.0 | 19.0 | 0.00 | 0.00 | 0.00 | 70 | 1005.8 |
| 20260903171019 | 82 | 135 | 9.0 | 16.0 | 0.00 | 0.00 | 0.00 | 69 | 1005.8 |
| 20260903170523 | 82 | 162 | 8.0 | 16.0 | 0.00 | 0.00 | 0.00 | 70 | 1005.7 |
| 20260903170052 | 82 | 179 | 11.0 | 19.0 | 0.00 | 0.00 | 0.00 | 69 | 1005.7 |
| 20260903165523 | 82 | 163 | 11.0 | 19.0 | 0.00 | 0.00 | 0.00 | 69 | 1005.6 |
| 20260903165019 | 82 | 133 | 13.0 | 19.0 | 0.00 | 0.00 | 0.00 | 68 | 1005.9 |
| 20260903164541 | 82 | 144 | 8.0 | 18.0 | 0.00 | 0.00 | 0.00 | 67 | 1005.9 |
| 20260903164021 | 82 | 180 | 9.0 | 18.0 | 0.00 | 0.00 | 0.00 | 68 | 1006.0 |
| 20260903163521 | 82 | 126 | 8.0 | 15.0 | 0.00 | 0.00 | 0.00 | 70 | 1006.0 |
| 20260903163039 | 81 | 159 | 7.0 | 13.0 | 0.00 | 0.00 | 0.00 | 72 | 1006.0 |
| 20260903162520 | 81 | 162 | 7.0 | 12.0 | 0.00 | 0.00 | 0.00 | 71 | 1006.0 |
| 20260903162019 | 81 | 132 | 5.0 | 12.0 | 0.00 | 0.00 | 0.00 | 72 | 1005.9 |
| 20260903161545 | 81 | 110 | 7.0 | 12.0 | 0.00 | 0.00 | 0.00 | 74 | 1005.9 |
| 20260903161019 | 80 | 130 | 5.0 | 12.0 | 0.00 | 0.00 | 0.00 | 72 | 1006.1 |
| 20260903160520 | 80 | 135 | 8.0 | 12.0 | 0.00 | 0.00 | 0.00 | 73 | 1006.3 |
| 20260903160040 | 80 | 146 | 5.0 | 11.0 | 0.00 | 0.00 | 0.00 | 74 | 1006.3 |
| 20260903155522 | 80 | 132 | 2.0 | 13.0 | 0.00 | 0.00 | 0.00 | 76 | 1006.4 |
| 20260903155019 | 79 | 117 | 5.0 | 13.0 | 0.00 | 0.00 | 0.00 | 76 | 1006.3 |
| 20260903154539 | 79 | 94 | 3.0 | 12.0 | 0.00 | 0.00 | 0.00 | 76 | 1006.0 |
| 20260903154018 | 79 | 126 | 7.0 | 12.0 | 0.00 | 0.00 | 0.00 | 76 | 1006.1 |
| 20260903153523 | 79 | 129 | 6.0 | 12.0 | 0.00 | 0.00 | 0.00 | 75 | 1006.2 |
| 20260903153038 | 78 | 150 | 5.0 | 12.0 | 0.00 | 0.00 | 0.00 | 74 | 1006.1 |
| 20260903152518 | 78 | 115 | 4.0 | 15.0 | 0.00 | 0.00 | 0.00 | 76 | 1006.1 |
| 20260903152021 | 78 | 117 | 10.0 | 15.0 | 0.00 | 0.00 | 0.00 | 74 | 1006.1 |
| 20260903151541 | 78 | 136 | 6.0 | 15.0 | 0.00 | 0.00 | 0.00 | 75 | 1006.0 |
| 20260903151020 | 78 | 136 | 9.0 | 15.0 | 0.00 | 0.00 | 0.00 | 74 | 1006.1 |
| 20260903150520 | 78 | 126 | 8.0 | 15.0 | 0.00 | 0.00 | 0.00 | 75 | 1006.2 |
| 20260903150053 | 78 | 140 | 6.0 | 11.0 | 0.00 | 0.00 | 0.00 | 75 | 1006.2 |
| 20260903145519 | 77 | 167 | 6.0 | 11.0 | 0.00 | 0.00 | 0.00 | 76 | 1006.4 |
| 20260903145019 | 77 | 130 | 6.0 | 12.0 | 0.00 | 0.00 | 0.00 | 77 | 1006.3 |
| 20260903144543 | 77 | 130 | 5.0 | 12.0 | 0.00 | 0.00 | 0.00 | 78 | 1006.3 |
| 20260903144021 | 76 | 98 | 3.0 | 12.0 | 0.00 | 0.00 | 0.00 | 78 | 1006.3 |
| 20260903143521 | 76 | 112 | 3.0 | 10.0 | 0.00 | 0.00 | 0.00 | 79 | 1006.3 |
| 20260903143048 | 75 | 132 | 3.0 | 10.0 | 0.00 | 0.00 | 0.00 | 81 | 1006.2 |
| 20260903142520 | 75 | 130 | 4.0 | 10.0 | 0.00 | 0.00 | 0.00 | 82 | 1006.2 |
| 20260903142019 | 74 | 129 | 3.0 | 9.0 | 0.00 | 0.00 | 0.00 | 83 | 1006.5 |
| 20260903141541 | 74 | 109 | 1.0 | 3.0 | 0.00 | 0.00 | 0.00 | 85 | 1006.5 |
| 20260903141021 | 73 | 133 | 1.0 | 3.0 | 0.00 | 0.00 | 0.00 | 87 | 1006.5 |
| 20260903140519 | 73 | 88 | 1.0 | 3.0 | 0.00 | 0.00 | 0.00 | 87 | 1006.5 |
| 20260903140040 | 72 | 103 | 1.0 | 3.0 | 0.00 | 0.00 | 0.00 | 88 | 1006.4 |
| 20260903135519 | 72 | 88 | 1.0 | 3.0 | 0.00 | 0.00 | 0.00 | 88 | 1006.4 |
| 20260903135019 | 72 | 91 | 1.0 | 4.0 | 0.00 | 0.00 | 0.00 | 88 | 1006.6 |
| 20260903134547 | 72 | 90 | 1.0 | 4.0 | 0.00 | 0.00 | 0.00 | 88 | 1006.5 |
| 20260903134021 | 71 | 92 | 1.0 | 6.0 | 0.00 | 0.00 | 0.00 | 89 | 1006.6 |
| 20260903133523 | 71 | 88 | 1.0 | 6.0 | 0.00 | 0.00 | 0.00 | 88 | 1006.6 |
| 20260903133038 | 71 | 94 | 1.0 | 6.0 | 0.00 | 0.00 | 0.00 | 89 | 1006.5 |
| 20260903132519 | 71 | 146 | 2.0 | 6.0 | 0.00 | 0.00 | 0.00 | 89 | 1006.8 |
| 20260903132020 | 71 | 94 | 2.0 | 6.0 | 0.00 | 0.00 | 0.00 | 88 | 1007.0 |
| 20260903131538 | 71 | 86 | 2.0 | 4.0 | 0.00 | 0.00 | 0.00 | 88 | 1007.0 |
| 20260903131020 | 71 | 105 | 2.0 | 4.0 | 0.00 | 0.00 | 0.00 | 88 | 1007.1 |
| 20260903130517 | 71 | 71 | 1.0 | 4.0 | 0.00 | 0.00 | 0.00 | 88 | 1007.0 |
| 20260903130039 | 70 | 88 | 1.0 | 4.0 | 0.00 | 0.00 | 0.00 | 88 | 1006.9 |
| 20260903125519 | 70 | 65 | 1.0 | 4.0 | 0.00 | 0.00 | 0.00 | 88 | 1007.1 |
| 20260903125016 | 70 | 98 | 1.0 | 4.0 | 0.00 | 0.00 | 0.00 | 88 | 1007.1 |
| 20260903124538 | 70 | 98 | 1.0 | 4.0 | 0.00 | 0.00 | 0.00 | 88 | 1007.0 |
| 20260903124017 | 70 | 35 | 1.0 | 3.0 | 0.00 | 0.00 | 0.00 | 87 | 1006.9 |
| 20260903123522 | 70 | 71 | 1.0 | 3.0 | 0.00 | 0.00 | 0.00 | 88 | 1006.9 |
| 20260903123034 | 70 | 84 | 1.0 | 4.0 | 0.00 | 0.00 | 0.00 | 88 | 1006.8 |
| 20260903122520 | 70 | 78 | 1.0 | 4.0 | 0.00 | 0.00 | 0.00 | 88 | 1006.9 |
| 20260903122020 | 70 | 111 | 1.0 | 4.0 | 0.00 | 0.00 | 0.00 | 88 | 1006.9 |
| 20260903121536 | 70 | 103 | 1.0 | 4.0 | 0.00 | 0.00 | 0.00 | 88 | 1006.9 |
| 20260903121019 | 70 | 91 | 1.0 | 4.0 | 0.00 | 0.00 | 0.00 | 88 | 1006.9 |
| 20260903120519 | 70 | 80 | 1.0 | 3.0 | 0.00 | 0.00 | 0.00 | 88 | 1007.0 |
| 20260903120039 | 70 | 78 | 1.0 | 2.0 | 0.00 | 0.00 | 0.00 | 87 | 1006.7 |
| 20260903115518 | 70 | 61 | 0.0 | 3.0 | 0.00 | 0.00 | 0.00 | 87 | 1006.8 |
| 20260903115018 | 69 | 32 | 0.0 | 3.0 | 0.00 | 0.00 | 0.00 | 87 | 1006.8 |
| 20260903114536 | 70 | 0 | 0.0 | 2.0 | 0.00 | 0.00 | 0.00 | 86 | 1006.8 |
| 20260903114021 | 70 | 39 | 0.0 | 3.0 | 0.00 | 0.00 | 0.00 | 86 | 1006.9 |
| 20260903113520 | 70 | 39 | 1.0 | 3.0 | 0.00 | 0.00 | 0.00 | 86 | 1006.7 |
| 20260903113036 | 70 | 70 | 1.0 | 2.0 | 0.00 | 0.00 | 0.00 | 86 | 1006.8 |
| 20260903112525 | 70 | 0 | 0.0 | 3.0 | 0.00 | 0.00 | 0.00 | 86 | 1006.8 |
| 20260903112020 | 70 | 0 | 0.0 | 3.0 | 0.00 | 0.00 | 0.00 | 86 | 1006.8 |
| 20260903111536 | 70 | 0 | 0.0 | 3.0 | 0.00 | 0.00 | 0.00 | 86 | 1006.7 |
| 20260903111019 | 70 | 58 | 1.0 | 3.0 | 0.00 | 0.00 | 0.00 | 87 | 1006.8 |
| 20260903110522 | 70 | 122 | 1.0 | 4.0 | 0.00 | 0.00 | 0.00 | 87 | 1006.5 |
| 20260903110037 | 70 | 0 | 1.0 | 4.0 | 0.00 | 0.00 | 0.00 | 86 | 1006.6 |
| 20260903105519 | 70 | 32 | 1.0 | 4.0 | 0.00 | 0.00 | 0.00 | 86 | 1006.6 |
| 20260903105019 | 71 | 84 | 1.0 | 4.0 | 0.00 | 0.00 | 0.00 | 86 | 1006.8 |
| 20260903104537 | 71 | 82 | 1.0 | 3.0 | 0.00 | 0.00 | 0.00 | 86 | 1006.8 |
| 20260903104018 | 71 | 57 | 1.0 | 3.0 | 0.00 | 0.00 | 0.00 | 86 | 1006.8 |
| 20260903103520 | 71 | 107 | 1.0 | 3.0 | 0.00 | 0.00 | 0.00 | 86 | 1006.8 |
| 20260903103037 | 71 | 93 | 0.0 | 3.0 | 0.00 | 0.00 | 0.00 | 85 | 1006.9 |
| 20260903102521 | 71 | 113 | 1.0 | 3.0 | 0.00 | 0.00 | 0.00 | 86 | 1006.8 |
| 20260903102019 | 71 | 90 | 1.0 | 3.0 | 0.00 | 0.00 | 0.00 | 85 | 1006.6 |
| 20260903101539 | 71 | 0 | 1.0 | 3.0 | 0.00 | 0.00 | 0.00 | 85 | 1006.6 |
| 20260903101018 | 71 | 90 | 1.0 | 3.0 | 0.00 | 0.00 | 0.00 | 85 | 1006.8 |
| 20260903100518 | 71 | 78 | 1.0 | 3.0 | 0.00 | 0.00 | 0.00 | 85 | 1006.8 |
| 20260903100038 | 71 | 106 | 1.0 | 4.0 | 0.00 | 0.00 | 0.00 | 84 | 1006.8 |
| 20260903095524 | 71 | 98 | 1.0 | 4.0 | 0.00 | 0.00 | 0.00 | 84 | 1007.0 |
| 20260903095021 | 71 | 89 | 1.0 | 3.0 | 0.00 | 0.00 | 0.00 | 84 | 1006.9 |
| 20260903094541 | 71 | 98 | 0.0 | 3.0 | 0.00 | 0.00 | 0.00 | 84 | 1007.1 |
| 20260903094018 | 71 | 88 | 1.0 | 3.0 | 0.00 | 0.00 | 0.00 | 84 | 1007.0 |
| 20260903093518 | 71 | 74 | 1.0 | 2.0 | 0.00 | 0.00 | 0.00 | 84 | 1007.0 |
| 20260903093051 | 71 | 68 | 0.0 | 2.0 | 0.00 | 0.00 | 0.00 | 83 | 1007.0 |
| 20260903092522 | 71 | 0 | 0.0 | 2.0 | 0.00 | 0.00 | 0.00 | 82 | 1007.0 |
| 20260903092021 | 71 | 307 | 0.0 | 2.0 | 0.00 | 0.00 | 0.00 | 82 | 1006.9 |
| 20260903091536 | 71 | 78 | 1.0 | 3.0 | 0.00 | 0.00 | 0.00 | 83 | 1006.8 |
| 20260903091018 | 71 | 78 | 1.0 | 3.0 | 0.00 | 0.00 | 0.00 | 83 | 1006.9 |
| 20260903090518 | 71 | 0 | 1.0 | 3.0 | 0.00 | 0.00 | 0.00 | 83 | 1006.9 |
| 20260903090037 | 71 | 78 | 0.0 | 3.0 | 0.00 | 0.00 | 0.00 | 83 | 1006.8 |
| 20260903085520 | 71 | 0 | 1.0 | 3.0 | 0.00 | 0.00 | 0.00 | 83 | 1007.1 |
| 20260903085020 | 71 | 94 | 1.0 | 3.0 | 0.00 | 0.00 | 0.00 | 83 | 1007.0 |
| 20260903084536 | 71 | 102 | 1.0 | 3.0 | 0.00 | 0.00 | 0.00 | 82 | 1007.2 |
| 20260903084018 | 71 | 94 | 0.0 | 3.0 | 0.00 | 0.00 | 0.00 | 81 | 1007.2 |
| 20260903083518 | 71 | 95 | 1.0 | 3.0 | 0.00 | 0.00 | 0.00 | 82 | 1007.1 |
| 20260903083034 | 71 | 130 | 0.0 | 2.0 | 0.00 | 0.00 | 0.00 | 81 | 1007.1 |
| 20260903082520 | 71 | 47 | 0.0 | 2.0 | 0.00 | 0.00 | 0.00 | 80 | 1007.2 |
| 20260903082020 | 71 | 96 | 0.0 | 3.0 | 0.00 | 0.00 | 0.00 | 80 | 1007.2 |
| 20260903081543 | 72 | 0 | 1.0 | 3.0 | 0.00 | 0.00 | 0.00 | 81 | 1007.0 |
| 20260903081017 | 72 | 65 | 1.0 | 3.0 | 0.00 | 0.00 | 0.00 | 80 | 1007.1 |
| 20260903080520 | 72 | 0 | 1.0 | 2.0 | 0.00 | 0.00 | 0.00 | 80 | 1007.0 |
| 20260903080037 | 72 | 72 | 0.0 | 2.0 | 0.00 | 0.00 | 0.00 | 79 | 1007.1 |
| 20260903075523 | 72 | 0 | 0.0 | 2.0 | 0.00 | 0.00 | 0.00 | 79 | 1007.2 |
| 20260903075019 | 72 | 0 | 0.0 | 3.0 | 0.00 | 0.00 | 0.00 | 79 | 1007.3 |
| 20260903074536 | 72 | 66 | 0.0 | 3.0 | 0.00 | 0.00 | 0.00 | 80 | 1007.1 |
| 20260903074019 | 72 | 69 | 0.0 | 3.0 | 0.00 | 0.00 | 0.00 | 78 | 1007.3 |
| 20260903073517 | 72 | 94 | 0.0 | 3.0 | 0.00 | 0.00 | 0.00 | 77 | 1007.4 |
| 20260903073036 | 73 | 85 | 1.0 | 3.0 | 0.00 | 0.00 | 0.00 | 78 | 1007.4 |
| 20260903072518 | 73 | 78 | 1.0 | 3.0 | 0.00 | 0.00 | 0.00 | 78 | 1007.4 |
| 20260903072019 | 73 | 96 | 1.0 | 3.0 | 0.00 | 0.00 | 0.00 | 77 | 1007.4 |
| 20260903071538 | 73 | 98 | 1.0 | 3.0 | 0.00 | 0.00 | 0.00 | 77 | 1007.3 |
| 20260903071020 | 73 | 113 | 1.0 | 4.0 | 0.00 | 0.00 | 0.00 | 77 | 1007.3 |
| 20260903070519 | 73 | 28 | 1.0 | 4.0 | 0.00 | 0.00 | 0.00 | 76 | 1007.5 |
| 20260903070041 | 73 | 84 | 1.0 | 3.0 | 0.00 | 0.00 | 0.00 | 76 | 1007.5 |
| 20260903065520 | 73 | 105 | 1.0 | 3.0 | 0.00 | 0.00 | 0.00 | 75 | 1007.5 |
| 20260903065020 | 73 | 113 | 0.0 | 2.0 | 0.00 | 0.00 | 0.00 | 76 | 1007.7 |
| 20260903064538 | 73 | 32 | 0.0 | 2.0 | 0.00 | 0.00 | 0.00 | 75 | 1007.7 |
| 20260903064021 | 73 | 82 | 1.0 | 3.0 | 0.00 | 0.00 | 0.00 | 76 | 1007.8 |
| 20260903063520 | 73 | 82 | 1.0 | 3.0 | 0.00 | 0.00 | 0.00 | 75 | 1007.8 |
| 20260903063040 | 73 | 0 | 0.0 | 4.0 | 0.00 | 0.00 | 0.00 | 74 | 1007.8 |
| 20260903062518 | 73 | 88 | 1.0 | 4.0 | 0.00 | 0.00 | 0.00 | 75 | 1008.0 |
| 20260903062018 | 73 | 78 | 1.0 | 3.0 | 0.00 | 0.00 | 0.00 | 74 | 1007.9 |
| 20260903061539 | 73 | 91 | 1.0 | 3.0 | 0.00 | 0.00 | 0.00 | 76 | 1007.8 |
| 20260903061022 | 73 | 22 | 0.0 | 2.0 | 0.00 | 0.00 | 0.00 | 72 | 1007.9 |
| 20260903060519 | 73 | 129 | 0.0 | 2.0 | 0.00 | 0.00 | 0.00 | 72 | 1007.9 |
| 20260903060039 | 74 | 0 | 1.0 | 2.0 | 0.00 | 0.00 | 0.00 | 72 | 1007.9 |
| 20260903055522 | 74 | 0 | 0.0 | 2.0 | 0.00 | 0.00 | 0.00 | 71 | 1008.0 |
| 20260903055019 | 74 | 0 | 0.0 | 3.0 | 0.00 | 0.00 | 0.00 | 71 | 1008.0 |
| 20260903054541 | 74 | 61 | 1.0 | 3.0 | 0.00 | 0.00 | 0.00 | 72 | 1008.0 |
| 20260903054018 | 74 | 0 | 0.0 | 3.0 | 0.00 | 0.00 | 0.00 | 71 | 1008.0 |
| 20260903053520 | 74 | 90 | 0.0 | 3.0 | 0.00 | 0.00 | 0.00 | 70 | 1008.1 |
| 20260903053040 | 74 | 67 | 0.0 | 3.0 | 0.00 | 0.00 | 0.00 | 71 | 1008.0 |
| 20260903052519 | 74 | 94 | 1.0 | 3.0 | 0.00 | 0.00 | 0.00 | 72 | 1008.2 |
| 20260903052017 | 75 | 47 | 0.0 | 3.0 | 0.00 | 0.00 | 0.00 | 72 | 1008.1 |
| 20260903051544 | 75 | 0 | 1.0 | 3.0 | 0.00 | 0.00 | 0.00 | 71 | 1008.1 |
| 20260903051017 | 75 | 85 | 0.0 | 2.0 | 0.00 | 0.00 | 0.00 | 71 | 1008.3 |
| 20260903050524 | 75 | 288 | 0.0 | 2.0 | 0.00 | 0.00 | 0.00 | 72 | 1008.2 |
| 20260903050041 | 75 | 81 | 0.0 | 3.0 | 0.00 | 0.00 | 0.00 | 73 | 1008.2 |
| 20260903045520 | 75 | 83 | 1.0 | 3.0 | 0.00 | 0.00 | 0.00 | 74 | 1008.3 |
| 20260903045019 | 75 | 73 | 1.0 | 3.0 | 0.00 | 0.00 | 0.00 | 75 | 1008.2 |
| 20260903044538 | 75 | 63 | 1.0 | 3.0 | 0.00 | 0.00 | 0.00 | 74 | 1008.3 |
| 20260903044019 | 75 | 80 | 1.0 | 3.0 | 0.00 | 0.00 | 0.00 | 73 | 1008.2 |
| 20260903043517 | 75 | 0 | 0.0 | 2.0 | 0.00 | 0.00 | 0.00 | 72 | 1008.4 |
| 20260903043041 | 75 | 0 | 0.0 | 2.0 | 0.00 | 0.00 | 0.00 | 72 | 1008.4 |
| 20260903042518 | 75 | 0 | 0.0 | 2.0 | 0.00 | 0.00 | 0.00 | 72 | 1008.3 |
| 20260903042019 | 75 | 0 | 0.0 | 2.0 | 0.00 | 0.00 | 0.00 | 71 | 1008.5 |
| 20260903041538 | 75 | 203 | 0.0 | 2.0 | 0.00 | 0.00 | 0.00 | 72 | 1008.5 |
| 20260903041020 | 75 | 33 | 0.0 | 3.0 | 0.00 | 0.00 | 0.00 | 72 | 1008.5 |
| 20260903040519 | 75 | 30 | 0.0 | 3.0 | 0.00 | 0.00 | 0.00 | 72 | 1008.6 |
| 20260903040042 | 75 | 0 | 1.0 | 3.0 | 0.00 | 0.00 | 0.00 | 72 | 1008.6 |
| 20260903035519 | 75 | 103 | 0.0 | 2.0 | 0.00 | 0.00 | 0.00 | 73 | 1008.6 |
| 20260903035017 | 75 | 98 | 0.0 | 2.0 | 0.00 | 0.00 | 0.00 | 74 | 1008.6 |
| 20260903034541 | 75 | 0 | 0.0 | 3.0 | 0.00 | 0.00 | 0.00 | 73 | 1008.6 |
| 20260903034020 | 75 | 102 | 0.0 | 3.0 | 0.00 | 0.00 | 0.00 | 73 | 1008.8 |
| 20260903033519 | 75 | 102 | 1.0 | 3.0 | 0.00 | 0.00 | 0.00 | 74 | 1008.7 |
| 20260903033039 | 75 | 0 | 0.0 | 2.0 | 0.00 | 0.00 | 0.00 | 74 | 1008.7 |
| 20260903032518 | 75 | 56 | 0.0 | 2.0 | 0.00 | 0.00 | 0.00 | 72 | 1008.5 |
| 20260903032027 | 75 | 0 | 1.0 | 2.0 | 0.00 | 0.00 | 0.00 | 71 | 1008.5 |
| 20260903031543 | 76 | 70 | 0.0 | 2.0 | 0.00 | 0.00 | 0.00 | 72 | 1008.5 |
| 20260903031018 | 76 | 65 | 1.0 | 2.0 | 0.00 | 0.00 | 0.00 | 71 | 1008.3 |
| 20260903030522 | 76 | 82 | 0.0 | 2.0 | 0.00 | 0.00 | 0.00 | 72 | 1008.4 |
| 20260903030042 | 76 | 83 | 0.0 | 2.0 | 0.00 | 0.00 | 0.00 | 71 | 1008.6 |
| 20260903025522 | 76 | 0 | 0.0 | 2.0 | 0.00 | 0.00 | 0.00 | 73 | 1008.6 |
| 20260903025020 | 76 | 96 | 0.0 | 2.0 | 0.00 | 0.00 | 0.00 | 72 | 1008.6 |
| 20260903024541 | 76 | 97 | 0.0 | 2.0 | 0.00 | 0.00 | 0.00 | 72 | 1008.5 |
| 20260903024023 | 76 | 111 | 0.0 | 2.0 | 0.00 | 0.00 | 0.00 | 72 | 1008.5 |
| 20260903023519 | 76 | 0 | 0.0 | 2.0 | 0.00 | 0.00 | 0.00 | 71 | 1008.4 |
| 20260903023057 | 77 | 0 | 0.0 | 2.0 | 0.00 | 0.00 | 0.00 | 72 | 1008.5 |
| 20260903022516 | 77 | 0 | 0.0 | 3.0 | 0.00 | 0.00 | 0.00 | 72 | 1008.4 |